Change the Weather History Date:

Saturday, August 17, 2013

  Actual Average Record
Temperature  
Mean Temperature 64 °F -  
Max Temperature 87 °F 76 °F 88 °F (1966)
Min Temperature 42 °F 40 °F 27 °F (1987)
Growing Degree Days 14 (Base 50)    
Moisture  
Dew Point 30 °F    
Average Humidity 38    
Maximum Humidity 61    
Minimum Humidity 11    
Precipitation  
Precipitation 0.00 in - - ()
Sea Level Pressure  
Sea Level Pressure 30.24 in    
Wind  
Wind Speed 5 mph (NNE)    
Max Wind Speed 15 mph    
Max Gust Speed 21 mph    
Visibility 10 miles    
Events      
Averages and records for this station are not official NWS values.
T = Trace of Precipitation, MM = Missing Value Source: NWS Daily Summary

Daily Weather History Graph

Daily Weather History Graph

Search for Another Location

Airport or City:

Trip Planner

Search our weather history database for the weather conditions in past years. The results will help you decide how hot, cold, wet, or windy it might be!

Date:

Astronomy

Aug. 17, 2013 Rise Set
Actual Time 6:30 AM MDT 8:22 PM MDT
Civil Twilight 5:59 AM MDT 8:53 PM MDT
Nautical Twilight 5:21 AM MDT 9:31 PM MDT
Astronomical Twilight 4:40 AM MDT 10:11 PM MDT
Moon 5:44 PM MDT (8/17) 2:33 AM MDT (8/17)
Length of Visible Light 14h 54m
Length of Day
13h 52m
Waxing Gibbous, 85% of the Moon is Illuminated
Aug 17
Waxing Gibbous
Aug 20
Full
Aug 28
Last Quarter
Sep 5
New
Sep 12
First Quarter

Hourly Weather History & Observations

Time (MDT) Temp. Windchill Dew Point Humidity Pressure Visibility Wind Dir Wind Speed Gust Speed Precip Events Conditions
12:15 AM 53.6 °F - 28.4 °F 38% 30.25 in 10.0 mi North 8.1 mph - N/A   Clear
12:55 AM 51.8 °F - 28.4 °F 41% 30.25 in 10.0 mi North 6.9 mph - N/A   Clear
1:15 AM 48.2 °F - 28.4 °F 46% 30.25 in 10.0 mi North 8.1 mph - N/A   Clear
1:35 AM 48.2 °F - 28.4 °F 46% 30.25 in 10.0 mi North 5.8 mph - N/A   Clear
1:55 AM 50.0 °F - 28.4 °F 43% 30.25 in 10.0 mi NNE 4.6 mph - N/A   Clear
2:15 AM 48.2 °F - 28.4 °F 46% 30.25 in 10.0 mi NNE 3.5 mph - N/A   Clear
2:35 AM 50.0 °F - 28.4 °F 43% 30.25 in 10.0 mi North 5.8 mph - N/A   Clear
2:55 AM 48.2 °F - 28.4 °F 46% 30.26 in 10.0 mi North 5.8 mph - N/A   Clear
3:15 AM 46.4 °F 42.4 °F 28.4 °F 50% 30.26 in 10.0 mi North 8.1 mph - N/A   Clear
3:35 AM 46.4 °F 42.9 °F 28.4 °F 50% 30.26 in 10.0 mi North 6.9 mph - N/A   Clear
3:55 AM 46.4 °F 45.2 °F 28.4 °F 50% 30.27 in 10.0 mi NNE 3.5 mph - N/A   Clear
4:15 AM 46.4 °F - 28.4 °F 50% 30.27 in 10.0 mi Calm Calm - N/A   Clear
4:35 AM 44.6 °F 41.4 °F 30.2 °F 57% 30.27 in 10.0 mi North 5.8 mph - N/A   Clear
4:55 AM 44.6 °F 42.2 °F 30.2 °F 57% 30.27 in 10.0 mi NNE 4.6 mph - N/A   Clear
5:35 AM 44.6 °F - 30.2 °F 57% 30.28 in 10.0 mi Calm Calm - N/A   Clear
6:15 AM 42.8 °F 39.3 °F 30.2 °F 61% 30.29 in 10.0 mi North 5.8 mph - N/A   Clear
6:35 AM 42.8 °F - 30.2 °F 61% 30.29 in 10.0 mi Calm Calm - N/A   Clear
6:51 AM 42.8 °F - 30.2 °F 61% 30.30 in 10.0 mi Calm Calm - N/A   Clear
6:55 AM 42.8 °F 39.3 °F 30.2 °F 61% 30.30 in 10.0 mi North 5.8 mph - N/A   Clear
7:51 AM 48.2 °F - 30.2 °F 50% 30.30 in 10.0 mi Calm Calm - N/A   Clear
8:51 AM 55.4 °F - 32.0 °F 41% 30.32 in 10.0 mi Calm Calm - N/A   Smoke
9:51 AM 64.4 °F - 28.4 °F 26% 30.31 in 10.0 mi Calm Calm - N/A   Smoke
10:52 AM 69.8 °F - 30.2 °F 23% 30.29 in 10.0 mi SE 3.5 mph - N/A   Smoke
12:53 PM 80.6 °F - 30.2 °F 16% 30.25 in 10.0 mi SSE 8.1 mph - N/A   Smoke
1:54 PM 84.2 °F - 33.8 °F 16% 30.23 in 10.0 mi SSW 9.2 mph - N/A   Clear
2:51 PM 84.2 °F - 26.6 °F 12% 30.21 in 10.0 mi SW 15.0 mph 20.7 mph N/A   Smoke
3:53 PM 87.8 °F - 26.6 °F 11% 30.19 in 10.0 mi WSW 8.1 mph 17.3 mph N/A   Clear
4:52 PM 87.8 °F - 28.4 °F 12% 30.17 in 10.0 mi SW 12.7 mph 16.1 mph N/A   Clear
5:51 PM 84.2 °F - 26.6 °F 12% 30.17 in 10.0 mi SW 3.5 mph 19.6 mph N/A   Clear
6:51 PM 86.0 °F - 28.4 °F 12% 30.17 in 10.0 mi South 3.5 mph - N/A   Clear
7:52 PM 78.8 °F - 30.2 °F 17% 30.17 in 10.0 mi South 5.8 mph - N/A   Clear
8:51 PM 68.0 °F - 33.8 °F 28% 30.18 in 10.0 mi Calm Calm - N/A   Clear
9:15 PM 66.2 °F - 37.4 °F 35% 30.19 in 10.0 mi Calm Calm - N/A   Clear
9:35 PM 69.8 °F - 32.0 °F 25% 30.20 in 10.0 mi SW 5.8 mph - N/A   Clear
9:55 PM 69.8 °F - 33.8 °F 27% 30.21 in 10.0 mi East 3.5 mph - N/A   Clear
10:15 PM 66.2 °F - 32.0 °F 28% 30.21 in 10.0 mi Calm Calm - N/A   Clear
10:35 PM 64.4 °F - 33.8 °F 32% 30.21 in 10.0 mi Calm Calm - N/A   Clear
11:15 PM 57.2 °F - 39.2 °F 51% 30.22 in 10.0 mi Calm Calm - N/A   Clear
11:35 PM 57.2 °F - 30.2 °F 36% 30.22 in 10.0 mi East 4.6 mph - N/A   Clear
11:55 PM 59.0 °F - 32.0 °F 36% 30.22 in 10.0 mi SE 3.5 mph - N/A   Clear